Regional Weather Roundup
Issued by NWS

Home | Current Version | Previous Version | Text Only | Print | Product List | Glossary On
Versions: 1 2 3 4 5 6 7 8 9 10 11 12 13 14 15 16 17 18 19 20 21 22 23 24 25 26 27 28 29 30 31 32 33 34 35 36 37 38 39 40 41 42 43 44 45 46 47 48 49 50
000
ASUS43 KMPX 162101
RWRMN
WEATHER ROUNDUP FOR MINNESOTA
NATIONAL WEATHER SERVICE TWIN CITIES/CHANHASSEN MN
300 PM CST TUE JAN 16 2018


NOTE: "FAIR" INDICATES FEW OR NO CLOUDS BELOW 12,000 FEET WITH NO
SIGNIFICANT WEATHER AND/OR OBSTRUCTIONS TO VISIBILITY. N/A MEANS
CURRENT SKY AND/OR WEATHER CONDITIONS ARE NOT AVAILABLE.

MNZ060>063-068>070-162200-
   Twin Cities Metro

CITY           SKY/WX    TMP DP  RH WIND       PRES   REMARKS
TWIN CITIES    FAIR       7  -1  70 W8        30.63F WCI  -6
ST PAUL        FAIR       9  -1  64 W9        30.64F WCI  -4
CRYSTAL        FAIR       6  -5  60 W8        30.62F WCI  -7
BLAINE         SUNNY      9   0  66 W10       30.61F WCI  -6
LAKEVILLE      FAIR       1  -2  85 W9        30.63S WCI -14
EDEN PRAIRIE   FAIR       4  -5  66 W8        30.63F WCI  -9
SOUTH ST PAUL  FAIR      10  -1  63 W7        30.62F WCI  -2
LAKE ELMO      FAIR      10   1  67 W6        30.61F WCI   1
$$
MNZ001>005-007-008-013>017-022>024-027-028-162200-
   Northwest Minnesota

CITY           SKY/WX    TMP DP  RH WIND       PRES   REMARKS
BEMIDJI        FAIR       6 -10  47 W9        30.51F WCI  -7
HALLOCK        FAIR       3  -4  72 S20       30.49F WCI -18
ROSEAU         FAIR       3  -8  60 SW14        N/A  WCI -15
WARROAD        FAIR       3  -8  60 SW9       30.47F WCI -11
CROOKSTON      FAIR       0  -8  71 S15       30.57F WCI -20
FOSSTON        FAIR      -4 -13  65 S13       30.55F WCI -23
DETROIT LAKES  FAIR       3  -9  55 SW6       30.58S WCI  -8
MOORHEAD       FAIR       1  -9  60 CALM      30.61F
PARK RAPIDS    FAIR       7  -2  66 W7        30.52F WCI  -5
MAHNOMEN       FAIR      -2 -10  69 S10       30.55F WCI -19
$$
MNZ006-009>011-018-025>026-162200-
   North Central Minnesota

CITY           SKY/WX    TMP DP  RH WIND       PRES   REMARKS
BAUDETTE       FAIR       5  -7  57 SW8       30.45F WCI  -8
FLAG ISLAND    FAIR       5  -6  61 SW15      30.41F WCI -13
INTL FALLS     FAIR       5  -8  55 SW9       30.47F WCI  -9
WASKISH        PTSUNNY    1  -8  66 SW13      30.52F WCI -16
BIG FORK       FAIR       9  -4  56 SW8       30.49F WCI  -4
LONGVILLE      FAIR       9  -2  61 W3        30.53F
GRAND RAPIDS   FAIR      10  -2  58 W6        30.54F WCI   0
CRANE LAKE     FAIR       7  -2  66 W5        30.51S WCI  -2
ORR            FAIR       7  -4  61 SW3       30.45F
COOK           PTSUNNY    9   0  66 W5        30.48F WCI   0
WALKER         FAIR      10  -2  56 W6        30.51F WCI   1
$$
MNZ012-019>021-037-162200-
   Northeast Minnesota

CITY           SKY/WX    TMP DP  RH WIND       PRES   REMARKS
DULUTH         FAIR      10   1  67 NW9       30.47F WCI  -3
ELY            FAIR       5  -2  72 W8        30.46F WCI  -8
HIBBING        FAIR       6  -1  73 W7        30.50F WCI  -6
EVELETH        FAIR       6  -3  68 SW7       30.50F WCI  -6
DULUTH HARBOR  FAIR      12   3  67 W10       30.56F WCI  -1
TWO HARBORS    FAIR      19   7  58 W7        30.47F WCI  10
SILVER BAY     FAIR      18   7  62 W5        30.46S WCI  11
GRAND MARAIS     N/A     18   2  49 VRB6      30.48F WCI  10
G MARAIS ARPRT FAIR      10   0  61 W7        30.38S WCI   0
$$
MNZ029>031-032-039>041-046>048-054>057-064-162200-
   West Central Minnesota

CITY           SKY/WX    TMP DP  RH WIND       PRES   REMARKS
FERGUS FALLS   FAIR       0  -9  65 S3        30.66F
WHEATON        SUNNY      5  -8  56 CALM      30.66F
MORRIS         SUNNY      5  -4  66 W7        30.62F WCI  -7
ALEXANDRIA     FAIR       4  -5  66 W6        30.58F WCI  -7
ELBOW LAKE     FAIR       0  -8  68 SW5       30.62F HAZE    WCI -10
WADENA         FAIR       3  -8  60 W7        30.57S WCI  -9
GLENWOOD       FAIR       5  -4  66 W5        30.60S WCI  -4
APPLETON       SUNNY      5  -4  66 CALM      30.65F
BENSON         SUNNY      3  -6  66 NW7       30.65F WCI  -9
ORTONVILLE     SUNNY      7  -6  56 CALM      30.63F
MADISON          N/A      7   0  72 CALM      30.65F
WILLMAR        FAIR       3  -2  78 W9        30.65F WCI -11
$$
MNZ033>034-036-042>043-049>051-058-059-162200-
   Central Minnesota

CITY           SKY/WX    TMP DP  RH WIND       PRES   REMARKS
ST CLOUD       FAIR       6  -3  66 NW7       30.61F WCI  -6
SAUK CENTRE      N/A      6  -2  69 W9        30.59F WCI  -8
PAYNESVILLE    FAIR       8   1  73 W5        30.61F WCI   0
AITKIN         FAIR       9  -2  61 W5        30.54F WCI   0
PINE RIVER     FAIR      10  -2  56 W3        30.56F
BRAINERD       FAIR       7  -3  64 SW3       30.56F
STAPLES        FAIR       3  -8  60 W7        30.57F WCI  -9
LONG PRAIRIE   FAIR       9  -4  56 S6        30.58F WCI  -1
LITTLE FALLS   FAIR       7  -8  51 W3        30.60S
LITCHFIELD     FAIR       7   0  72 W7        30.62F WCI  -5
BUFFALO        FAIR       5  -4  65 SW6       30.63F WCI  -6
MAPLE LAKE     FAIR       6  -2  70 MISG      30.62F
HUTCHINSON     FAIR       5  -2  72 W9        30.63F WCI  -9
$$
MNZ037-044-045-052-053-162200-
   East Central Minnesota

CITY           SKY/WX    TMP DP  RH WIND       PRES   REMARKS
PRINCETON      FAIR       5  -4  66 W5        30.60F WCI  -4
MORA           FAIR      12   1  62 W3        30.59F
CAMBRIDGE        N/A      7  -4  61 W5        30.61S WCI  -2
RUSH CITY      FAIR       8  -3  63 W6        30.60S WCI  -3
MOOSE LAKE     FAIR      12   1  62 W3        30.53F
HINCKLEY       FAIR      10   1  67 W5        30.58S WCI   2
CLOQUET        FAIR      10   0  61 SW7       30.50F WCI   0
MCGREGOR       FAIR      10   1  67 W3        30.54F
$$
MNZ071>073-080-081-089-090-097-098-162200-
   Southwest Minnesota

CITY           SKY/WX    TMP DP  RH WIND       PRES   REMARKS
MONTEVIDEO     SUNNY      9  -2  61 N5        30.65F WCI   0
GRANITE FALLS  SUNNY      5  -2  72 W8        30.67F WCI  -8
CANBY          SUNNY     11   2  68 CALM      30.64F
MARSHALL       SUNNY      6  -2  69 NW7       30.65F WCI  -6
REDWOOD FALLS  SUNNY      2  -5  72 W10       30.65F WCI -14
OLIVIA         SUNNY      5  -2  72 NW8       30.63F WCI  -8
PIPESTONE      SUNNY      3  -2  78 W8        30.60S WCI -10
WINDOM         SUNNY      5  -9  51 W8        30.62S WCI  -8
WORTHINGTON    SUNNY      6  -1  73 W10       30.62S WCI  -9
JACKSON        SUNNY      5   0  78 W9        30.61S WCI  -9
SLAYTON        SUNNY      7   1  76 W9        30.61F WCI  -7
$$
MNZ065>067-074>077-082>085-091>093-162200-
   South Central Minnesota

CITY           SKY/WX    TMP DP  RH WIND       PRES   REMARKS
MANKATO        FAIR       4  -4  69 W10       30.65S WCI -11
NEW ULM        SUNNY      1  -6  71 W10       30.65F WCI -14
ST JAMES       SUNNY      1  -4  78 W9        30.66F WCI -14
FAIRMONT       SUNNY      4  -3  73 W12       30.65  WCI -12
FARIBAULT      FAIR       1  -2  85 W7        30.63S WCI -11
OWATONNA       FAIR       3  -4  72 W10       30.62S WCI -12
WASECA         FAIR       3  -2  78 W9        30.65S WCI -11
ALBERT LEA     FAIR       1  -4  78 W9        30.61R WCI -14
$$
MNZ078>079-086>088-094>096-162200-
   Southeast Minnesota

CITY           SKY/WX    TMP DP  RH WIND       PRES   REMARKS
ROCHESTER      FAIR       5   0  79 NW12      30.57R WCI -11
RED WING       FAIR       9  -2  61 W7        30.62S WCI  -3
STANTON        FAIR       6  -1  72 W9        30.62S WCI  -8
DODGE CENTER   FAIR       3   0  85 W10       30.58R WCI -12
WINONA         FAIR      14   5  67 NW8       30.60R WCI   3
PRESTON        FAIR       7   1  74 NW9       30.57R WCI  -6
$$
ABBREVIATIONS USED IN REMARKS
   TC - TEMPERATURES IN CELSIUS
  WCI - WIND CHILL INDEX
   HX - HEAT INDEX
  VSB - VISIBILITY
$$




USA.gov is the U.S. government's official web portal to all federal, state and local government web resources and services.